EW8956 Weather Reports


time (UTC)temp
C
wind
direction
speed
KPH
gust
KPH
rain 1hr
cm
rain 24hr
cm
rain mn
cm
humidity
%
barometer
mb
20260902123047 25 0 0.0 0.0 0.00 0.00 0.00 83 1020.5
20260902121607 24 0 0.0 0.0 0.00 0.00 0.00 86 1020.6
20260902114609 22 0 0.0 0.0 0.00 0.00 0.00 89 1020.3
20260902113101 22 0 0.0 0.0 0.00 0.00 0.00 90 1020.1
20260902111556 22 0 0.0 0.0 0.00 0.00 0.00 89 1020.0
20260902110058 22 0 0.0 0.0 0.00 0.00 0.00 90 1019.8
20260902104550 22 0 0.0 0.0 0.00 0.00 0.00 90 1019.8
20260902103102 22 0 0.0 0.0 0.00 0.00 0.00 90 1019.7
20260902101549 22 0 0.0 0.0 0.00 0.00 0.00 90 1019.8
20260902100051 22 0 0.0 0.0 0.00 0.00 0.00 90 1019.6
20260902094551 22 0 0.0 0.0 0.00 0.00 0.00 90 1019.7
20260902093103 22 0 0.0 0.0 0.00 0.00 0.00 89 1019.7
20260902091555 22 0 0.0 0.0 0.00 0.00 0.00 88 1019.6
20260902084553 22 0 0.0 0.0 0.00 0.00 0.00 88 1019.5
20260902083054 22 0 0.0 0.0 0.00 0.00 0.00 87 1019.4
20260902081553 23 0 0.0 0.0 0.00 0.00 0.00 87 1019.3
20260902080052 23 0 0.0 0.0 0.00 0.00 0.00 86 1019.3
20260902074601 23 0 0.0 0.0 0.00 0.00 0.00 86 1019.3
20260902073058 23 0 0.0 0.0 0.00 0.00 0.00 87 1019.3
20260902071556 23 0 0.0 0.0 0.00 0.00 0.00 87 1019.3
20260902070054 23 0 0.0 0.0 0.00 0.00 0.00 87 1019.2
20260902064549 23 0 0.0 0.0 0.00 0.00 0.00 85 1019.3
20260902063057 23 0 0.0 0.0 0.00 0.00 0.00 85 1019.5
20260902061555 23 0 0.0 0.0 0.00 0.00 0.00 85 1019.5
20260902060107 23 0 0.0 0.0 0.00 0.00 0.00 84 1019.5
20260902054552 23 0 0.0 0.0 0.00 0.00 0.00 84 1019.4
20260902053100 24 0 0.0 0.0 0.00 0.00 0.00 84 1019.1
20260902051558 24 0 0.0 0.0 0.00 0.00 0.00 83 1019.1
20260902050054 24 0 0.0 0.0 0.00 0.00 0.00 82 1019.0
20260902044553 24 0 0.0 0.0 0.00 0.00 0.00 83 1018.9
20260902043056 24 0 0.0 0.0 0.00 0.00 0.00 82 1018.8
20260902041547 24 0 0.0 0.0 0.00 0.00 0.00 82 1018.8
20260902040057 25 0 0.0 0.0 0.00 0.00 0.00 82 1018.9
20260902034604 25 0 0.0 0.0 0.00 0.00 0.00 81 1019.1
20260902033103 25 0 0.0 0.0 0.00 0.00 0.00 81 1019.0
20260902031551 25 0 0.0 0.0 0.00 0.00 0.00 79 1018.9
20260902030056 25 0 0.0 0.0 0.00 0.00 0.00 79 1018.9
20260902024553 25 0 0.0 0.0 0.00 0.00 0.00 79 1019.0
20260902023051 25 0 0.0 0.0 0.00 0.00 0.00 79 1018.9
20260902021548 26 0 0.0 0.0 0.00 0.00 0.00 79 1018.7
20260902020055 26 0 0.0 0.0 0.00 0.00 0.00 79 1018.7
20260902014554 26 0 0.0 0.0 0.00 0.00 0.00 74 1018.4
20260902013051 26 0 0.0 0.0 0.00 0.00 0.00 75 1018.2
20260902011549 27 0 0.0 0.0 0.00 0.00 0.00 74 1018.2
20260902010046 27 0 0.0 0.0 0.00 0.00 0.00 72 1018.1
20260902004556 28 0 0.0 0.0 0.00 0.00 0.00 70 1017.8
20260902003054 28 0 0.0 0.0 0.00 0.00 0.00 67 1017.8
20260902001558 29 0 0.0 0.0 0.00 0.00 0.00 62 1017.7
20260902000052 30 0 0.0 0.0 0.00 0.00 0.00 60 1017.7
20260901234544 30 0 0.0 0.0 0.00 0.00 0.00 59 1017.7
20260901233101 31 0 0.0 0.0 0.00 0.00 0.00 56 1018.0
20260901231552 31 0 0.0 0.0 0.00 0.00 0.00 54 1018.0
20260901230050 32 0 0.0 0.0 0.00 0.00 0.00 53 1018.1
20260901224548 32 0 0.0 0.0 0.00 0.00 0.00 51 1018.2
20260901223055 32 0 0.0 0.0 0.00 0.00 0.00 50 1018.1
20260901221555 33 0 0.0 0.0 0.00 0.00 0.00 48 1018.0
20260901220113 33 0 0.0 0.0 0.00 0.00 0.00 47 1017.8
20260901214551 33 0 0.0 0.0 0.00 0.00 0.00 48 1017.6
20260901213046 33 0 0.0 0.0 0.00 0.00 0.00 49 1018.0
20260901211543 33 0 0.0 0.0 0.00 0.00 0.00 46 1018.2
20260901210052 34 0 0.0 0.0 0.00 0.00 0.00 44 1018.2
20260901204555 35 0 0.0 3.2 0.00 1.78 0.00 46 1018.2
20260901203049 34 0 0.0 3.2 0.00 1.78 0.00 45 1018.3
20260901201558 34 0 0.0 0.0 0.00 1.78 0.00 45 1018.3
20260901200052 33 0 0.0 0.0 0.00 1.78 0.00 46 1018.5
20260901194601 35 0 0.0 3.2 0.00 2.87 0.00 46 1018.7
20260901193103 35 0 0.0 0.0 0.00 2.87 0.00 47 1018.8
20260901191557 34 0 0.0 4.8 0.00 2.87 0.00 43 1018.9
20260901190052 35 0 0.0 3.2 0.00 2.87 0.00 43 1019.1
20260901184556 35 0 0.0 4.8 0.00 2.87 0.00 44 1019.2
20260901183049 34 0 0.0 8.0 0.00 2.87 0.00 46 1019.2
20260901181553 34 219 0.0 4.8 0.00 2.87 0.00 46 1019.4
20260901180049 34 0 0.0 4.8 0.00 2.87 0.00 45 1019.4
20260901174601 33 0 0.0 3.2 0.00 2.87 0.00 48 1019.6
20260901173053 33 0 0.0 1.6 0.00 2.87 0.00 49 1019.6
20260901171555 33 0 0.0 3.2 0.00 2.87 0.00 50 1019.6
20260901170108 33 0 0.0 0.0 0.00 2.87 0.00 49 1019.7
20260901164602 33 0 0.0 4.8 0.00 2.87 0.00 51 1019.9
20260901163053 32 0 0.0 1.6 0.00 2.87 0.00 57 1020.1
20260901161555 32 0 0.0 1.6 0.00 2.87 0.00 56 1020.4
20260901160054 31 0 0.0 3.2 0.00 2.87 0.00 56 1020.5
20260901154608 32 169 0.0 1.6 0.00 2.87 0.00 58 1020.6
20260901153052 31 0 0.0 3.2 0.00 2.87 0.00 59 1020.9
20260901151556 31 0 0.0 0.0 0.00 2.87 0.00 62 1021.0
20260901150103 30 0 0.0 0.0 0.00 2.87 0.00 64 1021.1
20260901144552 30 0 0.0 0.0 0.00 2.87 0.00 66 1021.2
20260901143051 29 0 0.0 0.0 0.00 2.87 0.00 67 1021.1
20260901141556 29 0 0.0 0.0 0.00 2.87 0.00 69 1021.1
20260901140105 28 0 0.0 0.0 0.00 2.87 0.00 75 1021.1
20260901134548 27 0 0.0 0.0 0.00 2.87 0.00 78 1021.0
20260901133053 26 0 0.0 0.0 0.00 2.87 0.00 81 1021.0
20260901131555 25 0 0.0 0.0 0.00 2.87 0.00 83 1021.0
20260901130049 24 0 0.0 0.0 0.00 2.87 0.00 86 1020.9
20260901124604 23 0 0.0 0.0 0.00 2.87 0.00 89 1020.9